Погода в Иргизском

Россия / Самарская область     52°10′43″N   50°55′07″E
темп.,
°C
ветер,
м/с
пор.,
м/с
влажн.,
%
обл.,
%
осадки,
мм/ч
давл.,
гПа
погр.,
м
8 мая, сб
сб801:00+14ююв1154100 0.0 101613
04:00+14ю1155100 0.0 101611
07:00+15ююз11535 0.0 101786
10:00+19ююз22375 0.0 10171299
13:00+21ююз453369 0.0 10162562
16:00+21ююз353374 0.0 10152414
19:00+20юз224083 0.0 101429
22:00+17ю3649100 0.0 1015111
9 мая, вс
вс901:00+16ююв3548100 0.0 101491
04:00+14ююв355758 0.0 101562
07:00+15ююв495997 0.0 1015291
10:00+20ююв564259 0.0 1015851
13:00+23ю4436100 0.0 10142180
16:00+24ююв4532100 0.0 10132510
19:00+21юв4848100 0.0 1014175
22:00+18ююв3356100 0.0 101547
10 мая, пн
пн1001:00+17юв345671 0.0 101543
04:00+15вюв496195 0.0 1015157
07:00+17юв5115599 0.0 1016292
10:00+22юв793952 0.0 1017673
13:00+25юв663268 0.0 10172301
16:00+25вюв6632100 0.0 10182505
19:00+22в4846100 0.0 1018185
22:00+19вюв61350100 0.0 1020332
11 мая, вт
вт1101:00+17вюв51252100 0.0 1021286
04:00+15в41061100 0.0 1022201
07:00+17в5106299 0.0 1024331
10:00+22вюв68415 0.0 1025898
13:00+24в783499 0.0 10252099
16:00+24вюв79345 0.0 10252340
19:00+22вюв4945100 0.0 1025271
22:00+18в3651100 0.0 1026106
12 мая, ср
ср1201:00+17в4554100 0.0 102676
04:00+16в495944 0.0 1026145
07:00+17в5106067 0.0 1027316
10:00+22вюв684593 0.0 10261146
13:00+25вюв6838100 0.0 10262170
16:00+24юв5741100 0.0 10251869
19:00+23в334969 0.0 102466
22:00+19в51058100 0.0 1025249